| time (UTC) | temp F | wind direction | speed MPH | gust MPH | rain 1hr in | rain 24hr in | rain mn in | humidity % | barometer mb |
| 20260505230603 | 45 | 286 | 9.0 | 18.0 | 0.00 | 0.00 | 0.00 | 47 | 1011.0 |
| 20260505225601 | 45 | 350 | 11.0 | 19.0 | 0.00 | 0.00 | 0.00 | 47 | 1011.0 |
| 20260505224102 | 46 | 331 | 12.0 | 21.0 | 0.00 | 0.00 | 0.00 | 47 | 1010.9 |
| 20260505223602 | 46 | 325 | 12.0 | 21.0 | 0.00 | 0.00 | 0.00 | 46 | 1010.9 |
| 20260505223101 | 45 | 304 | 11.0 | 20.0 | 0.00 | 0.00 | 0.00 | 47 | 1010.7 |
| 20260505222603 | 46 | 322 | 11.0 | 19.0 | 0.00 | 0.00 | 0.00 | 47 | 1010.7 |
| 20260505222057 | 46 | 295 | 10.0 | 19.0 | 0.00 | 0.00 | 0.00 | 46 | 1010.7 |
| 20260505221550 | 46 | 344 | 10.0 | 18.0 | 0.00 | 0.00 | 0.00 | 47 | 1010.7 |
| 20260505221051 | 47 | 0 | 11.0 | 18.0 | 0.00 | 0.00 | 0.00 | 46 | 1010.7 |
| 20260505220550 | 47 | 302 | 10.0 | 18.0 | 0.00 | 0.00 | 0.00 | 45 | 1010.8 |
| 20260505220052 | 47 | 271 | 9.0 | 20.0 | 0.00 | 0.00 | 0.00 | 47 | 1010.7 |
| 20260505215548 | 46 | 263 | 12.0 | 24.0 | 0.00 | 0.00 | 0.00 | 47 | 1010.7 |
| 20260505215047 | 46 | 299 | 11.0 | 24.0 | 0.00 | 0.00 | 0.00 | 46 | 1010.7 |
| 20260505214045 | 46 | 259 | 11.0 | 21.0 | 0.00 | 0.00 | 0.00 | 47 | 1010.7 |
| 20260505213546 | 46 | 342 | 10.0 | 21.0 | 0.00 | 0.00 | 0.00 | 46 | 1010.7 |
| 20260505213046 | 46 | 342 | 10.0 | 19.0 | 0.00 | 0.00 | 0.00 | 46 | 1010.7 |
| 20260505212545 | 46 | 256 | 12.0 | 22.0 | 0.00 | 0.00 | 0.00 | 46 | 1010.7 |
| 20260505212045 | 46 | 263 | 12.0 | 22.0 | 0.00 | 0.00 | 0.00 | 47 | 1010.7 |
| 20260505211545 | 46 | 301 | 12.0 | 22.0 | 0.00 | 0.00 | 0.00 | 46 | 1010.7 |
| 20260505211046 | 46 | 327 | 13.0 | 22.0 | 0.00 | 0.00 | 0.00 | 46 | 1010.6 |
| 20260505210546 | 46 | 284 | 11.0 | 25.0 | 0.00 | 0.00 | 0.00 | 45 | 1010.7 |
| 20260505210045 | 46 | 290 | 10.0 | 25.0 | 0.00 | 0.00 | 0.00 | 46 | 1010.7 |
| 20260505205549 | 46 | 318 | 10.0 | 20.0 | 0.00 | 0.00 | 0.00 | 46 | 1010.7 |
| 20260505205041 | 46 | 317 | 7.0 | 20.0 | 0.00 | 0.00 | 0.00 | 45 | 1010.6 |
| 20260505204543 | 46 | 301 | 9.0 | 24.0 | 0.00 | 0.00 | 0.00 | 46 | 1010.6 |
| 20260505204048 | 46 | 344 | 12.0 | 24.0 | 0.00 | 0.00 | 0.00 | 46 | 1010.7 |
| 20260505203545 | 46 | 283 | 11.0 | 19.0 | 0.00 | 0.00 | 0.00 | 46 | 1010.6 |
| 20260505202541 | 46 | 302 | 11.0 | 20.0 | 0.00 | 0.00 | 0.00 | 46 | 1010.7 |
| 20260505202041 | 46 | 280 | 11.0 | 20.0 | 0.00 | 0.00 | 0.00 | 46 | 1010.7 |
| 20260505201541 | 46 | 289 | 10.0 | 23.0 | 0.00 | 0.00 | 0.00 | 46 | 1010.7 |
| 20260505201044 | 46 | 225 | 12.0 | 23.0 | 0.00 | 0.00 | 0.00 | 46 | 1010.7 |
| 20260505200544 | 46 | 293 | 11.0 | 21.0 | 0.00 | 0.00 | 0.00 | 44 | 1010.6 |
| 20260505200042 | 47 | 276 | 9.0 | 19.0 | 0.00 | 0.00 | 0.00 | 44 | 1010.7 |
| 20260505194539 | 46 | 335 | 11.0 | 20.0 | 0.00 | 0.00 | 0.00 | 46 | 1010.7 |
| 20260505194039 | 46 | 279 | 10.0 | 20.0 | 0.00 | 0.00 | 0.00 | 45 | 1010.6 |
| 20260505193539 | 46 | 245 | 11.0 | 19.0 | 0.00 | 0.00 | 0.00 | 45 | 1010.5 |
| 20260505193039 | 46 | 255 | 10.0 | 18.0 | 0.00 | 0.00 | 0.00 | 46 | 1010.6 |
| 20260505192541 | 46 | 242 | 10.0 | 20.0 | 0.00 | 0.00 | 0.00 | 47 | 1010.7 |
| 20260505190540 | 45 | 317 | 10.0 | 19.0 | 0.00 | 0.00 | 0.00 | 48 | 1010.8 |
| 20260505185536 | 45 | 278 | 8.0 | 18.0 | 0.00 | 0.00 | 0.00 | 48 | 1011.0 |
| 20260505185035 | 45 | 300 | 10.0 | 20.0 | 0.00 | 0.00 | 0.00 | 48 | 1010.8 |
| 20260505184535 | 45 | 287 | 10.0 | 20.0 | 0.00 | 0.00 | 0.00 | 47 | 1010.9 |
| 20260505183537 | 44 | 295 | 11.0 | 22.0 | 0.00 | 0.00 | 0.00 | 49 | 1010.8 |
| 20260505183035 | 44 | 337 | 12.0 | 22.0 | 0.00 | 0.00 | 0.00 | 48 | 1010.8 |
| 20260505182037 | 44 | 244 | 11.0 | 22.0 | 0.00 | 0.00 | 0.00 | 47 | 1010.6 |
| 20260505181530 | 44 | 311 | 12.0 | 22.0 | 0.00 | 0.00 | 0.00 | 47 | 1010.7 |
| 20260505181031 | 44 | 258 | 10.0 | 19.0 | 0.00 | 0.00 | 0.00 | 47 | 1010.8 |
| 20260505180031 | 44 | 286 | 11.0 | 18.0 | 0.00 | 0.00 | 0.00 | 49 | 1010.7 |
| 20260505175031 | 44 | 225 | 11.0 | 21.0 | 0.00 | 0.00 | 0.00 | 48 | 1010.7 |
| 20260505174032 | 44 | 265 | 12.0 | 26.0 | 0.00 | 0.00 | 0.00 | 49 | 1010.7 |
| 20260505173531 | 44 | 290 | 11.0 | 26.0 | 0.00 | 0.00 | 0.00 | 47 | 1010.7 |
| 20260505172531 | 43 | 248 | 11.0 | 22.0 | 0.00 | 0.00 | 0.00 | 51 | 1010.9 |
| 20260505172031 | 43 | 291 | 11.0 | 20.0 | 0.00 | 0.00 | 0.00 | 49 | 1010.7 |
| 20260505171032 | 43 | 291 | 11.0 | 17.0 | 0.00 | 0.00 | 0.00 | 51 | 1010.7 |
| 20260505170532 | 43 | 286 | 11.0 | 18.0 | 0.00 | 0.00 | 0.00 | 50 | 1010.8 |
| 20260505165532 | 43 | 303 | 8.0 | 20.0 | 0.00 | 0.00 | 0.00 | 49 | 1010.8 |
| 20260505165030 | 43 | 282 | 9.0 | 20.0 | 0.00 | 0.00 | 0.00 | 51 | 1010.7 |
| 20260505164531 | 42 | 277 | 11.0 | 20.0 | 0.00 | 0.00 | 0.00 | 50 | 1010.7 |
| 20260505163529 | 42 | 252 | 10.0 | 23.0 | 0.00 | 0.00 | 0.00 | 51 | 1010.7 |
| 20260505163029 | 43 | 291 | 10.0 | 23.0 | 0.00 | 0.00 | 0.00 | 50 | 1010.7 |
| 20260505162530 | 43 | 302 | 10.0 | 20.0 | 0.00 | 0.00 | 0.00 | 50 | 1010.7 |
| 20260505161520 | 43 | 285 | 12.0 | 22.0 | 0.00 | 0.00 | 0.00 | 51 | 1010.7 |
| 20260505161016 | 42 | 290 | 13.0 | 22.0 | 0.00 | 0.00 | 0.00 | 52 | 1010.6 |
| 20260505160509 | 42 | 302 | 10.0 | 23.0 | 0.00 | 0.00 | 0.00 | 53 | 1010.6 |
| 20260505153007 | 41 | 278 | 9.0 | 20.0 | 0.00 | 0.00 | 0.00 | 57 | 1010.6 |
| 20260505152507 | 40 | 278 | 11.0 | 20.0 | 0.00 | 0.00 | 0.00 | 55 | 1010.7 |
| 20260505152007 | 41 | 302 | 8.0 | 19.0 | 0.00 | 0.00 | 0.00 | 55 | 1010.7 |
| 20260505151507 | 41 | 265 | 7.0 | 20.0 | 0.00 | 0.00 | 0.00 | 56 | 1010.7 |
| 20260505140438 | 37 | 300 | 8.0 | 15.0 | 0.00 | 0.00 | 0.00 | 58 | 1010.1 |
| 20260505124930 | 36 | 279 | 6.0 | 12.0 | 0.00 | 0.00 | 0.00 | 58 | 1009.4 |
| 20260505124424 | 36 | 306 | 5.0 | 10.0 | 0.00 | 0.00 | 0.00 | 59 | 1009.4 |
| 20260505123919 | 35 | 271 | 6.0 | 11.0 | 0.00 | 0.00 | 0.00 | 59 | 1009.3 |
| 20260505123412 | 35 | 279 | 4.0 | 11.0 | 0.00 | 0.00 | 0.00 | 60 | 1009.2 |
| 20260505122907 | 35 | 325 | 3.0 | 8.0 | 0.00 | 0.00 | 0.00 | 60 | 1009.3 |
| 20260505122402 | 35 | 301 | 5.0 | 11.0 | 0.00 | 0.00 | 0.00 | 60 | 1009.1 |
| 20260505121902 | 35 | 274 | 4.0 | 11.0 | 0.00 | 0.00 | 0.00 | 60 | 1009.0 |
| 20260505120902 | 34 | 305 | 4.0 | 9.0 | 0.00 | 0.00 | 0.00 | 62 | 1009.1 |
| 20260505120403 | 34 | 258 | 3.0 | 9.0 | 0.00 | 0.00 | 0.00 | 62 | 1008.9 |
| 20260505115903 | 34 | 255 | 3.0 | 9.0 | 0.00 | 0.00 | 0.00 | 63 | 1008.8 |
| 20260505115403 | 34 | 261 | 3.0 | 9.0 | 0.00 | 0.00 | 0.00 | 63 | 1008.8 |
| 20260505114901 | 34 | 280 | 2.0 | 8.0 | 0.00 | 0.00 | 0.00 | 63 | 1008.8 |
| 20260505114401 | 34 | 289 | 3.0 | 8.0 | 0.00 | 0.00 | 0.00 | 63 | 1008.7 |
| 20260505113903 | 34 | 248 | 3.0 | 9.0 | 0.00 | 0.00 | 0.00 | 63 | 1008.6 |
| 20260505112902 | 34 | 279 | 4.0 | 9.0 | 0.00 | 0.00 | 0.00 | 63 | 1008.5 |
| 20260505112401 | 34 | 281 | 4.0 | 9.0 | 0.00 | 0.00 | 0.00 | 63 | 1008.4 |
| 20260505111902 | 34 | 285 | 4.0 | 9.0 | 0.00 | 0.00 | 0.00 | 63 | 1008.3 |
| 20260505111405 | 34 | 276 | 4.0 | 9.0 | 0.00 | 0.00 | 0.00 | 63 | 1008.3 |
| 20260505110902 | 34 | 276 | 5.0 | 8.0 | 0.00 | 0.00 | 0.00 | 63 | 1008.2 |
| 20260505110401 | 34 | 267 | 4.0 | 8.0 | 0.00 | 0.00 | 0.00 | 63 | 1008.2 |
| 20260505100349 | 34 | 294 | 3.0 | 9.0 | 0.00 | 0.00 | 0.00 | 72 | 1008.0 |
| 20260505095349 | 34 | 263 | 3.0 | 7.0 | 0.00 | 0.00 | 0.00 | 74 | 1008.0 |
| 20260505094846 | 34 | 268 | 3.0 | 7.0 | 0.00 | 0.00 | 0.00 | 74 | 1007.9 |
| 20260505094348 | 34 | 236 | 3.0 | 5.0 | 0.00 | 0.00 | 0.00 | 74 | 1007.9 |
| 20260505093847 | 34 | 244 | 2.0 | 8.0 | 0.00 | 0.00 | 0.00 | 73 | 1007.9 |
| 20260505093346 | 34 | 241 | 3.0 | 8.0 | 0.00 | 0.00 | 0.00 | 73 | 1007.8 |
| 20260505092847 | 34 | 250 | 3.0 | 8.0 | 0.00 | 0.00 | 0.00 | 73 | 1007.8 |
| 20260505092348 | 34 | 269 | 3.0 | 8.0 | 0.00 | 0.00 | 0.00 | 73 | 1007.7 |
| 20260505091334 | 35 | 221 | 2.0 | 8.0 | 0.00 | 0.00 | 0.00 | 72 | 1007.6 |
| 20260505090832 | 35 | 283 | 3.0 | 8.0 | 0.00 | 0.00 | 0.00 | 72 | 1007.5 |
| 20260505090333 | 35 | 243 | 3.0 | 8.0 | 0.00 | 0.00 | 0.00 | 71 | 1007.5 |
| 20260505085833 | 35 | 287 | 3.0 | 7.0 | 0.00 | 0.00 | 0.00 | 71 | 1007.4 |
| 20260505085330 | 36 | 273 | 3.0 | 8.0 | 0.00 | 0.00 | 0.00 | 70 | 1007.3 |
| 20260505084830 | 36 | 278 | 4.0 | 8.0 | 0.00 | 0.00 | 0.00 | 70 | 1007.3 |
| 20260505083830 | 36 | 268 | 6.0 | 11.0 | 0.00 | 0.00 | 0.00 | 70 | 1007.2 |
| 20260505083330 | 36 | 274 | 6.0 | 11.0 | 0.00 | 0.00 | 0.00 | 70 | 1007.2 |
| 20260505082829 | 36 | 291 | 5.0 | 10.0 | 0.00 | 0.00 | 0.00 | 71 | 1007.1 |
| 20260505082331 | 36 | 288 | 6.0 | 10.0 | 0.00 | 0.00 | 0.00 | 71 | 1007.1 |
| 20260505081831 | 36 | 268 | 5.0 | 10.0 | 0.00 | 0.00 | 0.00 | 71 | 1007.1 |
| 20260505081330 | 36 | 292 | 5.0 | 9.0 | 0.00 | 0.00 | 0.00 | 70 | 1007.1 |
| 20260505080330 | 36 | 302 | 5.0 | 10.0 | 0.00 | 0.00 | 0.00 | 70 | 1007.0 |
| 20260505075831 | 36 | 272 | 4.0 | 8.0 | 0.00 | 0.00 | 0.00 | 70 | 1007.1 |
| 20260505075327 | 37 | 277 | 4.0 | 7.0 | 0.00 | 0.00 | 0.00 | 70 | 1007.0 |
| 20260505074822 | 37 | 275 | 4.0 | 10.0 | 0.00 | 0.00 | 0.00 | 70 | 1006.9 |
| 20260505074315 | 37 | 299 | 4.0 | 10.0 | 0.00 | 0.00 | 0.00 | 70 | 1007.0 |
| 20260505073808 | 37 | 295 | 5.0 | 10.0 | 0.00 | 0.00 | 0.00 | 69 | 1006.9 |
| 20260505073307 | 37 | 265 | 4.0 | 10.0 | 0.00 | 0.00 | 0.00 | 69 | 1007.0 |
| 20260505072309 | 37 | 243 | 4.0 | 9.0 | 0.00 | 0.00 | 0.00 | 69 | 1006.9 |
| 20260505071808 | 37 | 250 | 2.0 | 7.0 | 0.00 | 0.00 | 0.00 | 69 | 1006.9 |
| 20260505070809 | 37 | 246 | 4.0 | 8.0 | 0.00 | 0.00 | 0.00 | 68 | 1006.9 |
| 20260505070306 | 37 | 269 | 4.0 | 9.0 | 0.00 | 0.00 | 0.00 | 68 | 1006.9 |
| 20260505065806 | 37 | 246 | 4.0 | 9.0 | 0.00 | 0.00 | 0.00 | 68 | 1006.8 |
| 20260505065307 | 37 | 286 | 4.0 | 8.0 | 0.00 | 0.00 | 0.00 | 68 | 1006.8 |
| 20260505064807 | 38 | 286 | 3.0 | 8.0 | 0.00 | 0.00 | 0.00 | 67 | 1006.8 |
| 20260505064307 | 38 | 265 | 4.0 | 9.0 | 0.00 | 0.00 | 0.00 | 67 | 1006.7 |
| 20260505063807 | 38 | 249 | 4.0 | 9.0 | 0.00 | 0.00 | 0.00 | 67 | 1006.8 |
| 20260505062304 | 38 | 273 | 4.0 | 9.0 | 0.00 | 0.00 | 0.00 | 66 | 1006.6 |
| 20260505061804 | 38 | 250 | 4.0 | 8.0 | 0.00 | 0.00 | 0.00 | 65 | 1006.7 |
| 20260505061303 | 39 | 274 | 4.0 | 8.0 | 0.00 | 0.00 | 0.00 | 65 | 1006.8 |
| 20260505060304 | 39 | 267 | 5.0 | 11.0 | 0.00 | 0.00 | 0.00 | 64 | 1006.6 |
| 20260505055804 | 39 | 288 | 5.0 | 11.0 | 0.00 | 0.00 | 0.00 | 64 | 1006.6 |
| 20260505054802 | 40 | 276 | 4.0 | 10.0 | 0.00 | 0.00 | 0.00 | 63 | 1006.3 |
| 20260505054301 | 40 | 257 | 4.0 | 10.0 | 0.00 | 0.00 | 0.00 | 62 | 1006.2 |
| 20260505053803 | 40 | 246 | 3.0 | 8.0 | 0.00 | 0.00 | 0.00 | 61 | 1006.2 |
| 20260505053303 | 40 | 260 | 3.0 | 8.0 | 0.00 | 0.00 | 0.00 | 61 | 1006.2 |
| 20260505052802 | 41 | 252 | 4.0 | 11.0 | 0.00 | 0.00 | 0.00 | 60 | 1006.2 |
| 20260505052304 | 41 | 267 | 4.0 | 11.0 | 0.00 | 0.00 | 0.00 | 59 | 1006.2 |
| 20260505051302 | 41 | 265 | 7.0 | 13.0 | 0.00 | 0.00 | 0.00 | 59 | 1006.0 |
| 20260505050801 | 41 | 287 | 7.0 | 13.0 | 0.00 | 0.00 | 0.00 | 59 | 1006.0 |
| 20260505041302 | 43 | 263 | 7.0 | 15.0 | 0.00 | 0.00 | 0.00 | 55 | 1006.0 |
| 20260505040306 | 43 | 275 | 6.0 | 14.0 | 0.00 | 0.00 | 0.00 | 55 | 1005.9 |
| 20260505035254 | 44 | 266 | 7.0 | 13.0 | 0.00 | 0.00 | 0.00 | 54 | 1005.8 |
| 20260505034747 | 44 | 277 | 7.0 | 14.0 | 0.00 | 0.00 | 0.00 | 54 | 1005.8 |
| 20260505034241 | 44 | 285 | 7.0 | 14.0 | 0.00 | 0.00 | 0.00 | 54 | 1005.8 |
| 20260505033737 | 44 | 292 | 6.0 | 11.0 | 0.00 | 0.00 | 0.00 | 54 | 1005.7 |
| 20260505032731 | 44 | 284 | 5.0 | 12.0 | 0.00 | 0.00 | 0.00 | 53 | 1005.7 |
| 20260505032230 | 44 | 280 | 7.0 | 13.0 | 0.00 | 0.00 | 0.00 | 53 | 1005.7 |
| 20260505031730 | 45 | 261 | 7.0 | 13.0 | 0.00 | 0.00 | 0.00 | 53 | 1005.6 |
| 20260505031231 | 45 | 261 | 7.0 | 14.0 | 0.00 | 0.00 | 0.00 | 53 | 1005.7 |
| 20260505030729 | 45 | 297 | 9.0 | 18.0 | 0.00 | 0.00 | 0.00 | 53 | 1005.6 |
| 20260505030230 | 45 | 268 | 8.0 | 18.0 | 0.00 | 0.00 | 0.00 | 53 | 1005.7 |
| 20260505025731 | 45 | 302 | 6.0 | 12.0 | 0.00 | 0.00 | 0.00 | 53 | 1005.6 |
| 20260505025229 | 45 | 290 | 5.0 | 16.0 | 0.00 | 0.00 | 0.00 | 53 | 1005.6 |
| 20260505024729 | 45 | 269 | 5.0 | 16.0 | 0.00 | 0.00 | 0.00 | 53 | 1005.6 |
| 20260505024231 | 45 | 298 | 6.0 | 12.0 | 0.00 | 0.00 | 0.00 | 53 | 1005.4 |
| 20260505023730 | 45 | 303 | 6.0 | 10.0 | 0.00 | 0.00 | 0.00 | 53 | 1005.5 |
| 20260505022729 | 45 | 297 | 6.0 | 11.0 | 0.00 | 0.00 | 0.00 | 52 | 1005.4 |
| 20260505021730 | 45 | 270 | 7.0 | 14.0 | 0.00 | 0.00 | 0.00 | 51 | 1005.2 |
| 20260505020216 | 46 | 272 | 6.0 | 12.0 | 0.00 | 0.00 | 0.00 | 50 | 1005.1 |
| 20260505015710 | 46 | 311 | 7.0 | 13.0 | 0.00 | 0.00 | 0.00 | 50 | 1005.0 |
| 20260505015203 | 46 | 274 | 7.0 | 13.0 | 0.00 | 0.00 | 0.00 | 49 | 1004.9 |
| 20260505014705 | 46 | 273 | 8.0 | 13.0 | 0.00 | 0.00 | 0.00 | 49 | 1004.8 |
| 20260505013705 | 47 | 340 | 9.0 | 15.0 | 0.00 | 0.00 | 0.00 | 48 | 1004.8 |
| 20260505012205 | 47 | 270 | 6.0 | 16.0 | 0.00 | 0.00 | 0.00 | 47 | 1004.5 |
| 20260505011704 | 47 | 293 | 7.0 | 16.0 | 0.00 | 0.00 | 0.00 | 47 | 1004.4 |
| 20260505010704 | 47 | 280 | 10.0 | 19.0 | 0.00 | 0.00 | 0.00 | 46 | 1004.2 |
| 20260505010204 | 47 | 281 | 9.0 | 19.0 | 0.00 | 0.00 | 0.00 | 47 | 1004.3 |
| 20260505005702 | 47 | 311 | 8.0 | 18.0 | 0.00 | 0.00 | 0.00 | 47 | 1004.3 |
| 20260505005202 | 47 | 284 | 8.0 | 14.0 | 0.00 | 0.00 | 0.00 | 47 | 1004.3 |
| 20260505004201 | 47 | 296 | 9.0 | 20.0 | 0.00 | 0.00 | 0.00 | 47 | 1004.3 |
| 20260505002702 | 47 | 306 | 10.0 | 20.0 | 0.00 | 0.00 | 0.00 | 47 | 1004.2 |
| 20260505002159 | 47 | 284 | 10.0 | 20.0 | 0.00 | 0.00 | 0.00 | 46 | 1004.1 |
| 20260505001653 | 48 | 288 | 10.0 | 19.0 | 0.00 | 0.00 | 0.00 | 47 | 1004.2 |
| 20260505001153 | 48 | 294 | 11.0 | 23.0 | 0.00 | 0.00 | 0.00 | 47 | 1004.3 |
| 20260505000653 | 48 | 290 | 10.0 | 23.0 | 0.00 | 0.00 | 0.00 | 46 | 1004.1 |
| 20260505000155 | 48 | 269 | 9.0 | 20.0 | 0.00 | 0.00 | 0.00 | 47 | 1004.1 |
| 20260504235653 | 48 | 306 | 9.0 | 20.0 | 0.00 | 0.00 | 0.00 | 47 | 1004.2 |
| 20260504235153 | 48 | 318 | 9.0 | 17.0 | 0.00 | 0.00 | 0.00 | 49 | 1004.2 |
| 20260504234154 | 48 | 319 | 9.0 | 24.0 | 0.00 | 0.00 | 0.00 | 49 | 1004.0 |
| 20260504233653 | 48 | 316 | 10.0 | 21.0 | 0.00 | 0.00 | 0.00 | 50 | 1004.1 |
| 20260504233155 | 48 | 322 | 13.0 | 25.0 | 0.00 | 0.00 | 0.00 | 50 | 1004.0 |
| 20260504232653 | 48 | 9 | 14.0 | 25.0 | 0.00 | 0.00 | 0.00 | 49 | 1004.0 |
| 20260504232153 | 48 | 296 | 15.0 | 30.0 | 0.00 | 0.00 | 0.00 | 49 | 1003.9 |
| 20260504231654 | 48 | 324 | 12.0 | 30.0 | 0.00 | 0.00 | 0.00 | 49 | 1003.9 |
| 20260504231154 | 48 | 302 | 11.0 | 27.0 | 0.00 | 0.00 | 0.00 | 49 | 1003.9 |
| 20260504230653 | 49 | 305 | 13.0 | 27.0 | 0.00 | 0.00 | 0.00 | 49 | 1003.9 |